DW6016 Weather Reports


time (UTC)temp
C
wind
direction
speed
KPH
gust
KPH
rain 1hr
cm
rain 24hr
cm
rain mn
cm
humidity
%
barometer
mb
20260509183013 21 272 1.6 1.6 0.00 0.00 0.00 59 1020.3
20260509182510 20 100 0.0 1.6 0.00 0.00 0.00 60 1020.2
20260509182007 20 284 1.6 1.6 0.00 0.00 0.00 63 1020.2
20260509181505 20 310 0.0 1.6 0.00 0.00 0.00 63 1020.3
20260509181002 19 313 0.0 1.6 0.00 0.00 0.00 63 1020.4
20260509180457 19 136 1.6 1.6 0.00 0.00 0.00 63 1020.3
20260509175955 19 289 0.0 1.6 0.00 0.00 0.00 64 1020.4
20260509175451 18 292 1.6 1.6 0.00 0.00 0.00 67 1020.4
20260509174947 18 283 0.0 0.0 0.00 0.00 0.00 69 1020.3
20260509174443 18 298 1.6 1.6 0.00 0.00 0.00 66 1020.5
20260509173938 18 290 3.2 3.2 0.00 0.00 0.00 68 1020.7
20260509173433 17 298 0.0 1.6 0.00 0.00 0.00 70 1020.8
20260509172930 17 298 1.6 1.6 0.00 0.00 0.00 69 1020.8
20260509172427 17 301 0.0 1.6 0.00 0.00 0.00 71 1020.8
20260509171922 17 296 1.6 1.6 0.00 0.00 0.00 71 1021.0
20260509171418 17 110 1.6 3.2 0.00 0.00 0.00 69 1021.1
20260509170914 17 330 0.0 1.6 0.00 0.00 0.00 70 1021.1
20260509170411 17 291 0.0 0.0 0.00 0.00 0.00 71 1021.1
20260509165907 17 323 0.0 1.6 0.00 0.00 0.00 72 1021.1
20260509165401 16 274 1.6 3.2 0.00 0.00 0.00 75 1021.2
20260509164857 16 152 3.2 3.2 0.00 0.00 0.00 73 1021.5
20260509164353 16 300 1.6 1.6 0.00 0.00 0.00 73 1021.4
20260509163849 16 300 1.6 1.6 0.00 0.00 0.00 75 1021.4
20260509163346 16 31 1.6 1.6 0.00 0.00 0.00 74 1021.5
20260509162845 16 269 1.6 3.2 0.00 0.00 0.00 74 1021.9
20260509162344 16 301 1.6 3.2 0.00 0.00 0.00 75 1022.0
20260509161840 16 301 1.6 3.2 0.00 0.00 0.00 74 1021.5
20260509161337 16 169 1.6 3.2 0.00 0.00 0.00 74 1022.2
20260509160832 16 312 1.6 1.6 0.00 0.00 0.00 74 1022.0
20260509160329 16 309 0.0 1.6 0.00 0.00 0.00 75 1022.2
20260509155824 16 298 0.0 1.6 0.00 0.00 0.00 78 1021.9
20260509155320 15 301 1.6 1.6 0.00 0.00 0.00 77 1022.1
20260509154817 15 155 3.2 3.2 0.00 0.00 0.00 76 1021.8
20260509154313 15 308 0.0 0.0 0.00 0.00 0.00 78 1021.9
20260509153810 14 312 0.0 0.0 0.00 0.00 0.00 81 1022.0
20260509153307 15 113 0.0 1.6 0.00 0.00 0.00 79 1022.1
20260509152804 15 326 0.0 0.0 0.00 0.00 0.00 79 1022.2
20260509152259 15 291 0.0 0.0 0.00 0.00 0.00 80 1022.4
20260509151757 14 308 1.6 3.2 0.00 0.00 0.00 80 1022.4
20260509151253 14 313 0.0 0.0 0.00 0.00 0.00 82 1022.5
20260509150752 13 107 3.2 3.2 0.00 0.00 0.00 82 1022.5
20260509150250 13 329 0.0 0.0 0.00 0.00 0.00 84 1022.7
20260509145746 13 295 1.6 1.6 0.00 0.00 0.00 85 1022.6
20260509145246 13 339 1.6 3.2 0.00 0.00 0.00 85 1022.4
20260509144743 12 306 1.6 1.6 0.00 0.00 0.00 88 1022.5
20260509144239 12 330 0.0 1.6 0.00 0.00 0.00 88 1022.4
20260509143737 12 330 0.0 1.6 0.00 0.00 0.00 89 1022.2
20260509143234 12 94 3.2 3.2 0.00 0.00 0.00 89 1022.3
20260509142730 11 322 1.6 1.6 0.00 0.00 0.00 95 1022.5
20260509142226 11 309 0.0 0.0 0.00 0.00 0.00 99 1022.5
20260509141722 11 308 0.0 0.0 0.00 0.00 0.00 99 1022.4
20260509141220 10 317 0.0 0.0 0.00 0.00 0.00 99 1022.4
20260509140716 10 317 0.0 0.0 0.00 0.00 0.00 99 1022.4
20260509140213 10 306 0.0 0.0 0.00 0.00 0.00 99 1022.6
20260509135710 9 299 0.0 0.0 0.00 0.00 0.00 99 1022.4
20260509135209 8 299 0.0 0.0 0.00 0.00 0.00 99 1022.4
20260509134705 8 298 0.0 0.0 0.00 0.00 0.00 99 1022.3
20260509134202 8 298 0.0 0.0 0.00 0.00 0.00 99 1022.2
20260509133659 8 298 0.0 0.0 0.00 0.00 0.00 99 1022.2
20260509133156 8 298 0.0 0.0 0.00 0.00 0.00 99 1022.3
20260509132655 7 298 0.0 0.0 0.00 0.00 0.00 99 1022.2
20260509132153 7 298 0.0 0.0 0.00 0.00 0.00 99 1022.1
20260509131649 7 298 0.0 0.0 0.00 0.00 0.00 99 1022.2
20260509131146 7 298 0.0 0.0 0.00 0.00 0.00 99 1022.2
20260509130641 7 298 0.0 0.0 0.00 0.00 0.00 99 1022.3
20260509130138 7 298 0.0 0.0 0.00 0.00 0.00 99 1022.0
20260509125635 7 298 0.0 0.0 0.00 0.00 0.00 99 1022.2
20260509125131 7 298 0.0 0.0 0.00 0.00 0.00 99 1022.0
20260509124628 7 298 0.0 0.0 0.00 0.00 0.00 99 1022.3
20260509124125 7 298 0.0 0.0 0.00 0.00 0.00 99 1022.3
20260509123623 7 298 0.0 0.0 0.00 0.00 0.00 99 1022.5
20260509123120 7 298 0.0 0.0 0.00 0.00 0.00 99 1022.2
20260509122615 7 298 0.0 0.0 0.00 0.00 0.00 99 1022.4
20260509122113 7 298 0.0 0.0 0.00 0.00 0.00 99 1022.3
20260509121609 7 298 0.0 0.0 0.00 0.00 0.00 99 1022.2
20260509121107 7 298 0.0 0.0 0.00 0.00 0.00 99 1022.3
20260509120605 7 298 0.0 0.0 0.00 0.00 0.00 99 1022.2
20260509115600 7 298 0.0 0.0 0.00 0.00 0.00 99 1022.4
20260509115057 7 298 0.0 0.0 0.00 0.00 0.00 99 1022.6
20260509114555 7 298 0.0 0.0 0.00 0.00 0.00 99 1022.4
20260509114054 7 298 0.0 0.0 0.00 0.00 0.00 99 1022.4
20260509113552 8 298 0.0 0.0 0.00 0.00 0.00 99 1022.1
20260509113049 8 298 0.0 0.0 0.00 0.00 0.00 99 1022.3
20260509112545 8 298 0.0 0.0 0.00 0.00 0.00 99 1022.6
20260509112042 8 298 0.0 0.0 0.00 0.00 0.00 99 1022.7
20260509111540 8 298 0.0 0.0 0.00 0.00 0.00 99 1022.5
20260509111037 8 298 0.0 0.0 0.00 0.00 0.00 99 1022.7
20260509110533 8 298 0.0 0.0 0.00 0.00 0.00 99 1022.7
20260509110031 8 298 0.0 0.0 0.00 0.00 0.00 99 1022.8
20260509105529 8 298 0.0 0.0 0.00 0.00 0.00 99 1022.7
20260509105026 8 298 0.0 0.0 0.00 0.00 0.00 99 1022.7
20260509104523 8 298 0.0 0.0 0.00 0.00 0.00 99 1023.0
20260509104020 8 298 0.0 0.0 0.00 0.00 0.00 98 1022.9
20260509103518 8 298 0.0 0.0 0.00 0.00 0.00 98 1022.6
20260509103016 8 298 0.0 0.0 0.00 0.00 0.00 98 1022.8
20260509102513 8 298 0.0 0.0 0.00 0.00 0.00 97 1022.8
20260509102009 8 298 0.0 0.0 0.00 0.00 0.00 97 1022.6
20260509101506 9 298 0.0 0.0 0.00 0.00 0.00 96 1022.7
20260509101003 9 298 0.0 0.0 0.00 0.00 0.00 96 1022.8
20260509100500 9 298 0.0 0.0 0.00 0.00 0.00 95 1022.7
20260509095956 10 298 0.0 0.0 0.00 0.00 0.00 95 1022.9
20260509095453 10 298 0.0 0.0 0.00 0.00 0.00 95 1023.0
20260509094951 10 297 0.0 0.0 0.00 0.00 0.00 95 1022.7
20260509094447 10 303 0.0 0.0 0.00 0.00 0.00 95 1022.9
20260509093944 10 305 0.0 0.0 0.00 0.00 0.00 95 1023.1
20260509093442 10 311 0.0 0.0 0.00 0.00 0.00 95 1022.9
20260509092940 10 301 0.0 0.0 0.00 0.00 0.00 95 1022.9
20260509092438 10 311 0.0 0.0 0.00 0.00 0.00 96 1022.9
20260509091936 10 315 0.0 0.0 0.00 0.00 0.00 96 1023.1
20260509091432 10 315 0.0 0.0 0.00 0.00 0.00 95 1023.3
20260509090930 10 315 0.0 0.0 0.00 0.00 0.00 95 1023.1
20260509090427 10 323 0.0 1.6 0.00 0.00 0.00 96 1023.2
20260509085925 10 311 0.0 0.0 0.00 0.00 0.00 95 1023.2
20260509085421 10 312 0.0 0.0 0.00 0.00 0.00 94 1023.4
20260509084917 10 312 0.0 0.0 0.00 0.00 0.00 94 1023.2
20260509084414 10 312 0.0 0.0 0.00 0.00 0.00 93 1023.2
20260509083912 10 312 0.0 0.0 0.00 0.00 0.00 92 1023.3
20260509083409 10 312 0.0 0.0 0.00 0.00 0.00 92 1023.4
20260509082906 10 312 0.0 0.0 0.00 0.00 0.00 92 1023.3
20260509082403 10 312 0.0 0.0 0.00 0.00 0.00 92 1023.3
20260509081859 11 311 0.0 0.0 0.00 0.00 0.00 91 1023.3
20260509081357 11 312 0.0 0.0 0.00 0.00 0.00 90 1023.5
20260509080854 11 312 0.0 0.0 0.00 0.00 0.00 89 1023.6
20260509080352 11 312 0.0 0.0 0.00 0.00 0.00 89 1023.6
20260509075850 11 312 0.0 1.6 0.00 0.00 0.00 88 1023.6
20260509075347 11 312 0.0 0.0 0.00 0.00 0.00 87 1023.7
20260509074844 12 304 0.0 0.0 0.00 0.00 0.00 87 1023.5
20260509074342 12 314 0.0 1.6 0.00 0.00 0.00 86 1023.5
20260509073838 12 290 0.0 1.6 0.00 0.00 0.00 87 1023.9
20260509073334 12 305 0.0 0.0 0.00 0.00 0.00 87 1023.5
20260509072831 12 303 0.0 0.0 0.00 0.00 0.00 87 1023.8
20260509072327 12 307 0.0 1.6 0.00 0.00 0.00 87 1023.6
20260509071824 12 308 0.0 0.0 0.00 0.00 0.00 86 1023.6
20260509071321 12 308 0.0 0.0 0.00 0.00 0.00 85 1023.6
20260509070819 12 308 0.0 0.0 0.00 0.00 0.00 85 1023.6
20260509070315 12 309 0.0 0.0 0.00 0.00 0.00 84 1023.5
20260509065811 12 309 0.0 0.0 0.00 0.00 0.00 82 1023.7
20260509065308 13 309 0.0 0.0 0.00 0.00 0.00 81 1023.7
20260509064804 13 315 0.0 0.0 0.00 0.00 0.00 81 1023.6
20260509064301 13 302 0.0 0.0 0.00 0.00 0.00 80 1023.6
20260509063759 13 322 1.6 1.6 0.00 0.00 0.00 80 1023.8
20260509063255 13 302 0.0 1.6 0.00 0.00 0.00 80 1023.6
20260509062752 13 304 0.0 0.0 0.00 0.00 0.00 80 1023.6
20260509062249 13 301 1.6 1.6 0.00 0.00 0.00 79 1023.6
20260509061746 13 300 0.0 0.0 0.00 0.00 0.00 78 1023.6
20260509061244 13 296 0.0 1.6 0.00 0.00 0.00 77 1023.5
20260509060741 14 16 1.6 3.2 0.00 0.00 0.00 77 1023.5
20260509060237 14 312 0.0 1.6 0.00 0.00 0.00 76 1023.3
20260509055733 14 295 0.0 1.6 0.00 0.00 0.00 76 1023.3
20260509055229 14 311 0.0 0.0 0.00 0.00 0.00 75 1023.5
20260509054726 15 314 0.0 0.0 0.00 0.00 0.00 74 1023.4
20260509054223 15 318 0.0 0.0 0.00 0.00 0.00 74 1023.4
20260509053722 15 301 0.0 0.0 0.00 0.00 0.00 73 1023.3
20260509053218 15 304 0.0 1.6 0.00 0.00 0.00 73 1023.5
20260509052716 15 315 0.0 0.0 0.00 0.00 0.00 73 1023.5
20260509052213 15 303 0.0 0.0 0.00 0.00 0.00 72 1023.3
20260509051711 15 291 0.0 0.0 0.00 0.00 0.00 73 1023.3
20260509051209 15 300 0.0 0.0 0.00 0.00 0.00 72 1023.3
20260509050705 15 299 0.0 0.0 0.00 0.00 0.00 72 1023.4
20260509050202 15 311 0.0 0.0 0.00 0.00 0.00 71 1023.2
20260509045659 15 297 0.0 1.6 0.00 0.00 0.00 71 1023.2
20260509045156 16 301 0.0 0.0 0.00 0.00 0.00 71 1023.2
20260509044653 16 296 0.0 1.6 0.00 0.00 0.00 70 1022.8
20260509044150 16 308 0.0 0.0 0.00 0.00 0.00 69 1023.0
20260509043647 16 300 0.0 0.0 0.00 0.00 0.00 69 1023.0
20260509043142 16 312 1.6 1.6 0.00 0.00 0.00 68 1022.8
20260509042639 16 329 6.4 8.0 0.00 0.00 0.00 68 1022.8
20260509042135 16 306 0.0 1.6 0.00 0.00 0.00 68 1022.7
20260509041632 16 299 0.0 1.6 0.00 0.00 0.00 67 1022.9
20260509041130 16 318 0.0 1.6 0.00 0.00 0.00 66 1022.8
20260509040628 17 278 1.6 1.6 0.00 0.00 0.00 66 1022.8
20260509040125 17 301 0.0 0.0 0.00 0.00 0.00 65 1022.5
20260509035621 17 331 1.6 1.6 0.00 0.00 0.00 65 1022.5
20260509035118 17 306 0.0 0.0 0.00 0.00 0.00 65 1022.6
20260509034616 17 280 0.0 1.6 0.00 0.00 0.00 64 1022.5
20260509034113 17 303 0.0 0.0 0.00 0.00 0.00 64 1022.2
20260509033609 17 293 1.6 1.6 0.00 0.00 0.00 64 1022.4
20260509033106 17 28 1.6 1.6 0.00 0.00 0.00 62 1022.3
20260509032604 17 230 1.6 3.2 0.00 0.00 0.00 61 1022.2
20260509032101 17 299 1.6 8.0 0.00 0.00 0.00 62 1021.9
20260509031559 17 292 0.0 0.0 0.00 0.00 0.00 62 1022.1
20260509031056 17 297 0.0 1.6 0.00 0.00 0.00 61 1022.2
20260509030554 17 298 0.0 0.0 0.00 0.00 0.00 61 1022.0
20260509030050 18 299 0.0 0.0 0.00 0.00 0.00 60 1022.0
20260509025546 18 303 4.8 4.8 0.00 0.00 0.00 59 1022.2
20260509025042 18 301 0.0 1.6 0.00 0.00 0.00 58 1022.0
20260509024538 18 290 0.0 1.6 0.00 0.00 0.00 58 1021.9
20260509024034 18 293 0.0 0.0 0.00 0.00 0.00 57 1022.1
20260509023532 18 293 1.6 1.6 0.00 0.00 0.00 56 1021.9
20260509023029 18 275 0.0 0.0 0.00 0.00 0.00 57 1021.9
20260509022525 18 294 0.0 1.6 0.00 0.00 0.00 56 1021.9
20260509022023 18 297 1.6 1.6 0.00 0.00 0.00 56 1021.9
20260509021520 18 304 0.0 0.0 0.00 0.00 0.00 56 1021.9
20260509021017 18 304 0.0 0.0 0.00 0.00 0.00 55 1022.1
20260509020516 18 302 0.0 0.0 0.00 0.00 0.00 56 1022.0
20260509020012 19 303 1.6 1.6 0.00 0.00 0.00 55 1021.9
20260509015511 19 295 1.6 1.6 0.00 0.00 0.00 54 1021.9
20260509015008 19 310 0.0 1.6 0.00 0.00 0.00 55 1021.8
20260509014504 19 299 0.0 0.0 0.00 0.00 0.00 55 1021.8
20260509014001 19 315 0.0 0.0 0.00 0.00 0.00 55 1021.8
20260509013458 19 337 1.6 1.6 0.00 0.00 0.00 54 1021.8
20260509012953 18 293 0.0 0.0 0.00 0.00 0.00 54 1021.6
20260509012450 19 292 0.0 0.0 0.00 0.00 0.00 56 1021.9
20260509011947 19 304 0.0 0.0 0.00 0.00 0.00 54 1021.9
20260509011444 18 304 0.0 1.6 0.00 0.00 0.00 55 1021.9
20260509010942 18 304 0.0 0.0 0.00 0.00 0.00 56 1022.1
20260509010440 19 303 0.0 0.0 0.00 0.00 0.00 53 1022.0
20260509005936 19 324 0.0 0.0 0.00 0.00 0.00 53 1022.0
20260509005435 19 120 3.2 4.8 0.00 0.00 0.00 54 1021.9
20260509004934 19 308 0.0 0.0 0.00 0.00 0.00 54 1022.0
20260509004431 19 308 0.0 0.0 0.00 0.00 0.00 52 1022.2
20260509003929 19 297 0.0 1.6 0.00 0.00 0.00 55 1022.0
20260509003427 20 300 0.0 1.6 0.00 0.00 0.00 52 1022.3
20260509002923 20 306 0.0 0.0 0.00 0.00 0.00 53 1022.0
20260509002421 20 294 0.0 0.0 0.00 0.00 0.00 53 1022.1
20260509001918 20 260 1.6 1.6 0.00 0.00 0.00 53 1022.1
20260509001414 19 298 0.0 0.0 0.00 0.00 0.00 54 1022.2
20260509000912 20 319 3.2 4.8 0.00 0.00 0.00 53 1022.3
20260509000410 20 321 0.0 0.0 0.00 0.00 0.00 53 1022.2
20260508235905 19 310 0.0 1.6 0.00 0.00 0.00 53 1022.5
20260508235403 19 316 4.8 4.8 0.00 0.00 0.00 54 1022.3
20260508234900 19 300 1.6 3.2 0.00 0.00 0.00 54 1022.4
20260508234356 19 297 3.2 3.2 0.00 0.00 0.00 55 1022.2
20260508233855 19 109 6.4 9.7 0.00 0.00 0.00 53 1022.2
20260508233354 19 310 0.0 0.0 0.00 0.00 0.00 57 1022.2
20260508232850 19 309 0.0 1.6 0.00 0.00 0.00 54 1022.4
20260508232346 18 297 1.6 3.2 0.00 0.00 0.00 56 1022.2
20260508231845 18 310 0.0 1.6 0.00 0.00 0.00 55 1022.3
20260508231341 18 344 0.0 0.0 0.00 0.00 0.00 55 1022.3
20260508230838 18 304 1.6 3.2 0.00 0.00 0.00 56 1022.2
20260508230334 18 339 1.6 1.6 0.00 0.00 0.00 56 1022.5
20260508225832 18 324 4.8 4.8 0.00 0.00 0.00 56 1022.3
20260508225328 18 300 6.4 8.0 0.00 0.00 0.00 54 1022.3
20260508224826 18 106 1.6 3.2 0.00 0.00 0.00 55 1022.6
20260508224324 18 292 3.2 4.8 0.00 0.00 0.00 57 1022.3
20260508223821 18 314 0.0 0.0 0.00 0.00 0.00 56 1022.5
20260508223318 18 319 0.0 0.0 0.00 0.00 0.00 55 1022.6
20260508222816 18 233 1.6 3.2 0.00 0.00 0.00 58 1022.6
20260508222313 18 292 0.0 0.0 0.00 0.00 0.00 56 1022.5
20260508221809 18 321 1.6 3.2 0.00 0.00 0.00 58 1022.6
20260508221305 18 317 1.6 1.6 0.00 0.00 0.00 57 1022.7
20260508220801 18 298 1.6 4.8 0.00 0.00 0.00 55 1022.7
20260508220258 18 295 0.0 0.0 0.00 0.00 0.00 57 1022.6
20260508215754 17 298 0.0 0.0 0.00 0.00 0.00 56 1022.5
20260508215251 17 290 1.6 1.6 0.00 0.00 0.00 59 1022.7
20260508214748 18 337 1.6 1.6 0.00 0.00 0.00 56 1022.8
20260508214245 18 295 0.0 1.6 0.00 0.00 0.00 63 1022.8
20260508213742 18 303 1.6 3.2 0.00 0.00 0.00 56 1022.6
20260508213238 18 192 4.8 9.7 0.00 0.00 0.00 56 1022.7
20260508212735 17 274 1.6 1.6 0.00 0.00 0.00 57 1023.0
20260508212231 17 78 1.6 3.2 0.00 0.00 0.00 58 1022.6
20260508211727 17 267 1.6 1.6 0.00 0.00 0.00 57 1022.6
20260508211223 17 330 1.6 1.6 0.00 0.00 0.00 60 1022.8
20260508210721 17 317 1.6 1.6 0.00 0.00 0.00 61 1022.6
20260508210218 18 312 1.6 3.2 0.00 0.00 0.00 56 1022.7
20260508205714 17 311 0.0 0.0 0.00 0.00 0.00 62 1022.8
20260508205211 17 297 0.0 1.6 0.00 0.00 0.00 59 1022.8
20260508204707 17 182 3.2 4.8 0.00 0.00 0.00 57 1022.7
20260508204203 17 284 1.6 1.6 0.00 0.00 0.00 58 1022.6
20260508203659 17 160 0.0 0.0 0.00 0.00 0.00 57 1022.8
20260508203156 16 310 0.0 0.0 0.00 0.00 0.00 61 1022.9
20260508202652 16 327 3.2 4.8 0.00 0.00 0.00 60 1022.8
20260508202149 16 306 3.2 3.2 0.00 0.00 0.00 60 1022.9
20260508201646 17 303 1.6 3.2 0.00 0.00 0.00 61 1022.9
20260508201143 16 55 3.2 4.8 0.00 0.00 0.00 58 1022.8
20260508200640 17 315 0.0 0.0 0.00 0.00 0.00 63 1022.9
20260508200136 17 294 0.0 1.6 0.00 0.00 0.00 61 1023.1
20260508195632 16 243 1.6 3.2 0.00 0.00 0.00 60 1023.1
20260508195129 17 309 1.6 3.2 0.00 0.00 0.00 57 1023.3
20260508194626 16 295 0.0 1.6 0.00 0.00 0.00 58 1023.3
20260508194123 16 296 0.0 0.0 0.00 0.00 0.00 60 1023.2
20260508193620 15 282 0.0 1.6 0.00 0.00 0.00 65 1023.0
20260508193116 15 222 1.6 1.6 0.00 0.00 0.00 63 1023.1
20260508192613 15 322 4.8 8.0 0.00 0.00 0.00 63 1023.0
20260508192110 15 301 4.8 4.8 0.00 0.00 0.00 63 1023.2
20260508191607 15 315 0.0 0.0 0.00 0.00 0.00 65 1023.2
20260508191103 15 307 1.6 3.2 0.00 0.00 0.00 64 1023.4
20260508190600 15 300 9.7 9.7 0.00 0.00 0.00 61 1023.3
20260508190057 15 322 1.6 3.2 0.00 0.00 0.00 64 1023.1
20260508185554 15 309 0.0 0.0 0.00 0.00 0.00 64 1023.3
20260508185052 15 303 1.6 1.6 0.00 0.00 0.00 63 1023.3
20260508184549 15 310 0.0 1.6 0.00 0.00 0.00 66 1023.4
20260508184046 15 296 0.0 1.6 0.00 0.00 0.00 63 1023.5
20260508183542 15 293 1.6 1.6 0.00 0.00 0.00 66 1023.2
20260508183038 15 310 1.6 3.2 0.00 0.00 0.00 68 1023.3